FW2651 Weather Reports


Display with metric or nautical units.
time (UTC)temp
F
wind
direction
speed
MPH
gust
MPH
rain 1hr
in
rain 24hr
in
rain mn
in
humidity
%
barometer
mb
20260906110006 70 360 0.0 0.0 0.00 0.01 0.01 94 1009.0
20260906104700 70 360 0.0 0.0 0.00 0.01 0.01 94 1008.8
20260906103057 70 360 0.0 0.0 0.00 0.01 0.01 94 1008.8
20260906101549 70 360 0.0 0.0 0.00 0.01 0.01 94 1008.8
20260906100053 70 360 0.0 0.0 0.00 0.01 0.01 94 1008.7
20260906094643 70 360 0.0 0.0 0.00 0.01 0.01 94 1008.9
20260906093035 71 360 0.0 0.0 0.00 0.01 0.01 94 1008.9
20260906091527 71 360 0.0 1.0 0.00 0.01 0.01 94 1008.9
20260906090020 71 360 0.0 1.0 0.00 0.01 0.01 93 1009.0
20260906084515 72 284 0.0 0.0 0.00 0.01 0.01 93 1008.9
20260906083007 72 215 0.0 0.0 0.00 0.01 0.01 93 1008.9
20260906081559 72 360 0.0 1.0 0.00 0.01 0.01 92 1008.9
20260906080057 72 360 0.0 0.0 0.00 0.01 0.01 92 1008.9
20260906074547 73 171 0.0 0.0 0.00 0.01 0.01 92 1009.3
20260906073044 73 360 0.0 6.0 0.00 0.01 0.01 92 1009.2
20260906071537 73 213 0.0 1.0 0.00 0.01 0.01 91 1009.1
20260906070030 73 360 0.0 0.0 0.00 0.01 0.01 91 1008.5
20260906064520 73 36 0.0 0.0 0.01 0.01 0.01 90 1008.8
20260906063015 74 360 0.0 1.0 0.01 0.01 0.01 91 1009.3
20260906061608 74 360 0.0 1.0 0.01 0.01 0.01 91 1009.6
20260906060059 74 9 0.0 5.0 0.01 0.01 0.01 90 1009.4
20260906054602 75 360 0.0 1.0 0.00 0.00 0.00 89 1008.8
20260906053057 75 360 0.0 7.0 0.00 0.00 0.00 88 1009.4
20260906051601 75 240 0.0 0.0 0.00 0.00 0.00 87 1009.4
20260906050033 74 235 0.0 0.0 0.00 0.00 0.00 88 1009.4
20260906044525 74 235 0.0 0.0 0.00 0.00 0.00 89 1009.2
20260906043020 74 235 0.0 0.0 0.00 0.00 0.00 89 1009.4
20260906041511 74 235 0.0 0.0 0.00 0.00 0.00 88 1009.6
20260906040003 74 222 0.0 0.0 0.00 0.00 0.00 87 1009.8
20260906034605 74 222 0.0 0.0 0.00 0.00 0.00 87 1009.7
20260906033104 75 223 0.0 0.0 0.00 0.00 0.00 87 1009.7
20260906031550 75 223 0.0 0.0 0.00 0.00 0.00 87 1009.7
20260906030047 75 223 0.0 0.0 0.00 0.00 0.00 86 1009.6
20260906024540 75 223 0.0 0.0 0.00 0.00 0.00 87 1009.5
20260906023033 75 223 0.0 0.0 0.00 0.00 0.00 86 1009.0
20260906021528 76 223 0.0 0.0 0.00 0.00 0.00 85 1008.9
20260906020120 76 245 0.0 0.0 0.00 0.00 0.00 84 1008.8
20260906014514 77 244 0.0 0.0 0.00 0.00 0.00 84 1008.5
20260906013007 77 244 0.0 0.0 0.00 0.00 0.00 83 1008.3
20260906011501 78 360 0.0 0.0 0.00 0.00 0.00 80 1008.4
20260906010055 79 360 0.0 0.0 0.00 0.00 0.00 78 1008.5
20260906004551 79 360 0.0 0.0 0.00 0.00 0.00 77 1008.7
20260906003050 80 360 0.0 0.0 0.00 0.00 0.00 75 1008.6
20260906001546 81 360 0.0 0.0 0.00 0.00 0.00 72 1008.6
20260906000040 82 360 0.0 0.0 0.00 0.00 0.00 69 1008.7
20260905234533 83 360 0.0 0.0 0.00 0.00 0.00 67 1008.7
20260905233025 85 360 0.0 0.0 0.00 0.00 0.00 65 1008.5
20260905231521 85 290 0.0 0.0 0.00 0.00 0.00 65 1008.2
20260905230113 85 360 0.0 0.0 0.00 0.00 0.00 65 1008.3
20260905224509 84 290 0.0 1.0 0.00 0.00 0.00 67 1008.5
20260905223113 83 360 0.0 0.0 0.00 0.00 0.00 67 1008.3
20260905221550 82 360 0.0 0.0 0.00 0.00 0.00 68 1008.5
20260905220049 81 360 0.0 0.0 0.00 0.00 0.00 70 1008.7
20260905214548 81 288 0.0 0.0 0.00 0.00 0.00 71 1008.7
20260905213041 82 360 0.0 1.0 0.00 0.00 0.00 69 1008.7
20260905211631 83 280 0.0 1.0 0.00 0.00 0.00 66 1008.8
20260905210038 81 360 0.0 2.0 0.00 0.00 0.00 70 1008.8
20260905204515 78 236 0.0 5.0 0.00 0.00 0.00 73 1009.1
20260905203007 76 216 0.0 4.0 0.00 0.00 0.00 76 1009.3
20260905201559 75 360 2.0 15.0 0.00 0.00 0.00 79 1009.7
20260905201502 75 217 2.0 15.0 0.00 0.00 0.00 79 1009.7
20260905200054 77 213 1.0 7.0 0.00 0.00 0.00 76 1009.6
20260905194550 78 360 0.0 5.0 0.00 0.00 0.00 78 1009.6
20260905193039 80 360 0.0 7.0 0.00 0.00 0.00 72 1009.7
20260905191534 80 144 0.0 1.0 0.00 0.00 0.00 73 1009.7
20260905190028 81 155 1.0 17.0 0.00 0.00 0.00 71 1010.1
20260905184528 86 360 0.0 5.0 0.00 0.00 0.00 66 1009.9
20260905183015 86 360 0.0 3.0 0.00 0.00 0.00 59 1009.8
20260905181507 85 360 0.0 4.0 0.00 0.00 0.00 61 1009.8
20260905180001 90 360 8.0 20.0 0.00 0.00 0.00 53 1010.0
20260905174549 91 360 0.0 0.0 0.00 0.00 0.00 55 1009.8
20260905173105 88 22 0.0 0.0 0.00 0.00 0.00 57 1010.0
20260905171547 87 23 0.0 11.0 0.00 0.00 0.00 60 1010.0
20260905170046 88 360 0.0 4.0 0.00 0.00 0.00 57 1010.2
20260905164536 90 17 0.0 5.0 0.00 0.00 0.00 56 1010.4
20260905163028 90 360 0.0 0.0 0.00 0.00 0.00 57 1010.6
20260905161520 90 360 0.0 0.0 0.00 0.00 0.00 56 1010.8
20260905160014 90 360 0.0 0.0 0.00 0.00 0.00 56 1010.8
20260905154502 88 360 0.0 0.0 0.00 0.00 0.00 58 1010.8
20260905153056 87 40 0.0 0.0 0.00 0.00 0.00 59 1010.9
20260905151548 85 38 0.0 0.0 0.00 0.00 0.00 64 1011.1
20260905150041 83 42 0.0 0.0 0.00 0.00 0.00 67 1011.1
20260905144532 83 360 0.0 0.0 0.00 0.00 0.00 66 1011.1
20260905143022 81 40 0.0 0.0 0.00 0.00 0.00 68 1011.2
20260905141514 81 360 0.0 0.0 0.00 0.00 0.00 69 1011.3
20260905140110 80 360 0.0 0.0 0.00 0.00 0.00 71 1011.3
20260905134658 79 36 0.0 0.0 0.00 0.00 0.00 76 1011.4
20260905133049 78 36 0.0 0.0 0.00 0.00 0.00 77 1011.5
20260905131641 77 36 0.0 0.0 0.00 0.00 0.00 80 1011.6
20260905130033 76 36 0.0 0.0 0.00 0.00 0.00 82 1011.7
20260905124526 75 39 0.0 0.0 0.00 0.00 0.00 85 1011.8
20260905123017 74 40 0.0 0.0 0.00 0.00 0.00 86 1011.6
20260905121508 73 360 0.0 0.0 0.00 0.00 0.00 90 1011.4
20260905120001 72 40 0.0 0.0 0.00 0.00 0.00 91 1011.2
20260905114600 71 40 0.0 0.0 0.00 0.00 0.00 92 1011.1
20260905113049 71 40 0.0 0.0 0.00 0.00 0.00 91 1010.8
20260905111542 71 40 0.0 0.0 0.00 0.00 0.00 92 1010.6